User: anonymous   Login
Location: Simi Valley
(34.2690°N, 118.7810°W)
Time: 14:14:39
(UTC-08:00)
Language:

Lacrosse 5 rocket - Orbit

View from above orbital plane
View from above orbital plane
View from above satellite
View from above satellite

Ground track
Ground track

The orbit data is extracted from the following two-line orbital elements,

1 28647U 05016B   16315.73969264 0.00000900  00000-0  53130-4 0    09
2 28647  56.9980 182.2784 0124921 299.8514  60.1485 15.04667332    06
Epoch (UTC): 10 November 2016 17:45:09
Eccentricity: 0.0124921
inclination: 56.9980°
perigee height: 466 km
apogee height: 639 km
right ascension of ascending node: 182.2784°
argument of perigee: 299.8514°
revolutions per day: 15.04667332
mean anomaly at epoch: 60.1485°
orbit number at epoch: 0

The dashed part of the orbit path shows where the satellite is in the earth's shadow,  

DLR